Time,TemperatureF,DewpointF,PressureIn,WindDirection,WindDirectionDegrees,WindSpeedMPH,WindSpeedGustMPH,Humidity,HourlyPrecipIn,Conditions,Clouds,dailyrainin,SolarRadiationWatts/m^2,SoftwareType,DateUTC
2013-09-27 00:03:00,62.0,61.0,-100.00,NNE,27,4.0,4.0,97,0.00,,,0.00,0.000000,,2013-09-27 04:03:00,
2013-09-27 00:44:00,62.0,61.0,-100.00,NNE,27,4.0,4.0,97,0.00,,,0.00,0.000000,,2013-09-27 04:44:00,
2013-09-27 00:54:00,62.0,61.0,-100.00,NNE,27,4.0,4.0,97,0.00,,,0.00,0.000000,,2013-09-27 04:54:00,
2013-09-27 01:23:00,62.0,61.0,-100.00,NNE,27,2.0,5.0,97,0.00,,,0.00,0.000000,,2013-09-27 05:23:00,
2013-09-27 01:34:00,62.0,61.0,-100.00,NNE,27,2.0,5.0,97,0.00,,,0.00,0.000000,,2013-09-27 05:34:00,
2013-09-27 01:43:00,62.0,61.0,-100.00,NNE,27,2.0,5.0,97,0.00,,,0.00,0.000000,,2013-09-27 05:43:00,
2013-09-27 01:52:00,62.0,61.0,-100.00,NNE,27,2.0,5.0,97,0.00,,,0.00,0.000000,,2013-09-27 05:52:00,
2013-09-27 02:02:00,62.0,61.0,-100.00,NNE,27,2.0,5.0,97,0.00,,,0.00,0.000000,,2013-09-27 06:02:00,
2013-09-27 02:22:00,61.0,60.0,-100.00,NNE,15,3.0,4.0,97,0.00,,,0.00,0.000000,,2013-09-27 06:22:00,
2013-09-27 02:32:00,61.0,60.0,-100.00,NNE,15,3.0,4.0,97,0.00,,,0.00,0.000000,,2013-09-27 06:32:00,
2013-09-27 02:43:00,61.0,60.0,-100.00,NNE,15,3.0,4.0,97,0.00,,,0.00,0.000000,,2013-09-27 06:43:00,
2013-09-27 02:52:00,61.0,60.0,-100.00,NNE,15,3.0,4.0,97,0.00,,,0.00,0.000000,,2013-09-27 06:52:00,
2013-09-27 03:02:00,61.0,60.0,-100.00,NNE,15,3.0,4.0,97,0.00,,,0.00,0.000000,,2013-09-27 07:02:00,
2013-09-27 03:44:00,60.0,59.0,-100.00,NNE,26,3.0,4.0,97,0.00,,,0.00,0.000000,,2013-09-27 07:44:00,
2013-09-27 03:53:00,60.0,59.0,-100.00,NNE,26,3.0,4.0,97,0.00,,,0.00,0.000000,,2013-09-27 07:53:00,
2013-09-27 04:02:00,60.0,59.0,-100.00,NNE,26,3.0,4.0,97,0.00,,,0.00,0.000000,,2013-09-27 08:02:00,
2013-09-27 04:22:00,60.0,59.0,-100.00,NNE,21,2.0,4.0,97,0.00,,,0.00,0.000000,,2013-09-27 08:22:00,
2013-09-27 04:32:00,60.0,59.0,-100.00,NNE,21,2.0,4.0,97,0.00,,,0.00,0.000000,,2013-09-27 08:32:00,
2013-09-27 04:42:00,60.0,59.0,-100.00,NNE,21,2.0,4.0,97,0.00,,,0.00,0.000000,,2013-09-27 08:42:00,
2013-09-27 04:52:00,60.0,59.0,-100.00,NNE,21,2.0,4.0,97,0.00,,,0.00,0.000000,,2013-09-27 08:52:00,
2013-09-27 05:02:00,60.0,59.0,-100.00,NNE,21,2.0,4.0,97,0.00,,,0.00,0.000000,,2013-09-27 09:02:00,
2013-09-27 05:03:00,60.0,59.0,-100.00,NNE,17,3.0,5.0,97,0.00,,,0.00,0.000000,,2013-09-27 09:03:00,
2013-09-27 05:44:00,60.0,59.0,-100.00,NNE,17,3.0,5.0,97,0.00,,,0.00,0.000000,,2013-09-27 09:44:00,
2013-09-27 05:54:00,60.0,59.0,-100.00,NNE,17,3.0,5.0,97,0.00,,,0.00,0.000000,,2013-09-27 09:54:00,
2013-09-27 06:03:00,59.0,58.0,-100.00,NE,40,3.0,4.0,97,0.00,,,0.00,0.000000,,2013-09-27 10:03:00,
2013-09-27 06:42:00,59.0,58.0,-100.00,NE,40,3.0,4.0,97,0.00,,,0.00,0.000000,,2013-09-27 10:42:00,
2013-09-27 06:53:00,59.0,58.0,-100.00,NE,40,3.0,4.0,97,0.00,,,0.00,0.000000,,2013-09-27 10:53:00,
2013-09-27 07:22:00,59.0,58.0,-100.00,NE,35,3.0,5.0,97,0.00,,,0.00,0.000000,,2013-09-27 11:22:00,
2013-09-27 07:33:00,59.0,58.0,-100.00,NE,35,3.0,5.0,97,0.00,,,0.00,0.000000,,2013-09-27 11:33:00,
2013-09-27 07:43:00,59.0,58.0,-100.00,NE,35,3.0,5.0,97,0.00,,,0.00,0.000000,,2013-09-27 11:43:00,
2013-09-27 07:52:00,59.0,58.0,-100.00,NE,35,3.0,5.0,97,0.00,,,0.00,0.000000,,2013-09-27 11:52:00,
2013-09-27 08:02:00,59.0,58.0,-100.00,NE,35,3.0,5.0,97,0.00,,,0.00,0.000000,,2013-09-27 12:02:00,
2013-09-27 08:42:00,60.0,59.0,-100.00,NNE,17,4.0,6.0,95,0.00,,,-99.99,27.000000,,2013-09-27 12:42:00,
2013-09-27 08:52:00,60.0,59.0,-100.00,NNE,17,4.0,6.0,95,0.00,,,-99.99,27.000000,,2013-09-27 12:52:00,
2013-09-27 09:02:00,60.0,59.0,-100.00,NNE,17,4.0,6.0,95,0.00,,,-99.99,27.000000,,2013-09-27 13:02:00,
2013-09-27 09:42:00,64.0,60.0,-100.00,NE,34,7.0,10.0,86,0.00,,,0.00,237.000000,,2013-09-27 13:42:00,
2013-09-27 09:53:00,64.0,60.0,-100.00,NE,34,7.0,10.0,86,0.00,,,0.00,237.000000,,2013-09-27 13:53:00,
2013-09-27 10:02:00,64.0,60.0,-100.00,NE,34,7.0,10.0,86,0.00,,,0.00,237.000000,,2013-09-27 14:02:00,
2013-09-27 10:42:00,68.0,60.0,-100.00,NE,52,8.0,14.0,76,0.00,,,0.00,488.000000,,2013-09-27 14:42:00,
2013-09-27 10:52:00,68.0,60.0,-100.00,NE,52,8.0,14.0,76,0.00,,,0.00,488.000000,,2013-09-27 14:52:00,
2013-09-27 11:02:00,68.0,60.0,-100.00,NE,52,8.0,14.0,76,0.00,,,0.00,488.000000,,2013-09-27 15:02:00,
2013-09-27 11:03:00,72.0,59.0,-100.00,NE,53,7.0,14.0,64,0.00,,,0.00,731.000000,,2013-09-27 15:03:00,
2013-09-27 11:22:00,72.0,59.0,-100.00,NE,53,7.0,14.0,64,0.00,,,0.00,731.000000,,2013-09-27 15:22:00,
2013-09-27 11:33:00,72.0,59.0,-100.00,NE,53,7.0,14.0,64,0.00,,,0.00,731.000000,,2013-09-27 15:33:00,
2013-09-27 11:44:00,72.0,59.0,-100.00,NE,53,7.0,14.0,64,0.00,,,0.00,731.000000,,2013-09-27 15:44:00,
2013-09-27 11:54:00,72.0,59.0,-100.00,NE,53,7.0,14.0,64,0.00,,,0.00,731.000000,,2013-09-27 15:54:00,
2013-09-27 12:03:00,75.0,57.0,-100.00,NE,49,9.0,15.0,54,0.00,,,0.00,917.000000,,2013-09-27 16:03:00,
2013-09-27 12:44:00,75.0,57.0,-100.00,NE,49,9.0,15.0,54,0.00,,,0.00,917.000000,,2013-09-27 16:44:00,
2013-09-27 12:53:00,75.0,57.0,-100.00,NE,49,9.0,15.0,54,0.00,,,0.00,917.000000,,2013-09-27 16:53:00,
2013-09-27 13:43:00,76.0,57.0,-100.00,NE,53,9.0,17.0,51,0.00,,,0.00,966.000000,,2013-09-27 17:43:00,
2013-09-27 13:52:00,76.0,57.0,-100.00,NE,53,9.0,17.0,51,0.00,,,0.00,966.000000,,2013-09-27 17:52:00,
2013-09-27 14:02:00,76.0,57.0,-100.00,NE,53,9.0,17.0,51,0.00,,,0.00,966.000000,,2013-09-27 18:02:00,
2013-09-27 14:43:00,78.0,55.0,-100.00,ENE,57,11.0,21.0,45,0.00,,,0.00,1035.000000,,2013-09-27 18:43:00,
2013-09-27 14:52:00,78.0,55.0,-100.00,ENE,57,11.0,21.0,45,0.00,,,0.00,1035.000000,,2013-09-27 18:52:00,
2013-09-27 15:02:00,78.0,55.0,-100.00,ENE,57,11.0,21.0,45,0.00,,,0.00,1035.000000,,2013-09-27 19:02:00,
2013-09-27 15:03:00,79.0,54.0,-100.00,NNE,32,12.0,16.0,42,0.00,,,0.00,1010.000000,,2013-09-27 19:03:00,
2013-09-27 15:43:00,79.0,54.0,-100.00,NNE,32,12.0,16.0,42,0.00,,,0.00,1010.000000,,2013-09-27 19:43:00,
2013-09-27 15:53:00,79.0,54.0,-100.00,NNE,32,12.0,16.0,42,0.00,,,0.00,1010.000000,,2013-09-27 19:53:00,
2013-09-27 16:22:00,79.0,55.0,-100.00,NE,55,10.0,19.0,44,0.00,,,0.00,875.000000,,2013-09-27 20:22:00,
2013-09-27 16:32:00,79.0,55.0,-100.00,NE,55,10.0,19.0,44,0.00,,,0.00,875.000000,,2013-09-27 20:32:00,
2013-09-27 16:43:00,79.0,55.0,-100.00,NE,55,10.0,19.0,44,0.00,,,0.00,875.000000,,2013-09-27 20:43:00,
2013-09-27 16:52:00,79.0,55.0,-100.00,NE,55,10.0,19.0,44,0.00,,,0.00,875.000000,,2013-09-27 20:52:00,
2013-09-27 17:02:00,79.0,55.0,-100.00,NE,55,10.0,19.0,44,0.00,,,0.00,875.000000,,2013-09-27 21:02:00,
2013-09-27 17:03:00,79.0,53.0,-100.00,ENE,65,9.0,17.0,41,0.00,,,0.00,676.000000,,2013-09-27 21:03:00,
2013-09-27 17:44:00,79.0,53.0,-100.00,ENE,65,9.0,17.0,41,0.00,,,0.00,676.000000,,2013-09-27 21:44:00,
2013-09-27 17:54:00,79.0,53.0,-100.00,ENE,65,9.0,17.0,41,0.00,,,0.00,676.000000,,2013-09-27 21:54:00,
2013-09-27 18:03:00,78.0,53.0,-100.00,ENE,58,8.0,16.0,42,0.00,,,0.00,428.000000,,2013-09-27 22:03:00,
2013-09-27 18:43:00,78.0,53.0,-100.00,ENE,58,8.0,16.0,42,0.00,,,0.00,428.000000,,2013-09-27 22:43:00,
2013-09-27 18:53:00,78.0,53.0,-100.00,ENE,58,8.0,16.0,42,0.00,,,0.00,428.000000,,2013-09-27 22:53:00,
2013-09-27 19:43:00,74.0,56.0,-100.00,ENE,65,4.0,11.0,54,0.00,,,0.00,167.000000,,2013-09-27 23:43:00,
2013-09-27 19:53:00,74.0,56.0,-100.00,ENE,65,4.0,11.0,54,0.00,,,0.00,167.000000,,2013-09-27 23:53:00,
2013-09-27 20:02:00,74.0,56.0,-100.00,ENE,65,4.0,11.0,54,0.00,,,0.00,167.000000,,2013-09-28 00:02:00,
2013-09-27 20:22:00,68.0,56.0,-100.00,ENE,64,5.0,6.0,66,0.00,,,0.00,8.000000,,2013-09-28 00:22:00,
2013-09-27 20:32:00,68.0,56.0,-100.00,ENE,64,5.0,6.0,66,0.00,,,0.00,8.000000,,2013-09-28 00:32:00,
2013-09-27 20:42:00,68.0,56.0,-100.00,ENE,64,5.0,6.0,66,0.00,,,0.00,8.000000,,2013-09-28 00:42:00,
2013-09-27 20:52:00,68.0,56.0,-100.00,ENE,64,5.0,6.0,66,0.00,,,0.00,8.000000,,2013-09-28 00:52:00,
2013-09-27 21:01:00,68.0,56.0,-100.00,ENE,64,5.0,6.0,66,0.00,,,0.00,8.000000,,2013-09-28 01:01:00,
2013-09-27 21:03:00,64.0,57.0,-100.00,ENE,58,4.0,6.0,78,0.00,,,0.00,0.000000,,2013-09-28 01:03:00,
2013-09-27 21:42:00,64.0,57.0,-100.00,ENE,58,4.0,6.0,78,0.00,,,0.00,0.000000,,2013-09-28 01:42:00,
2013-09-27 21:52:00,64.0,57.0,-100.00,ENE,58,4.0,6.0,78,0.00,,,0.00,0.000000,,2013-09-28 01:52:00,
2013-09-27 22:03:00,65.0,56.0,-100.00,NE,56,4.0,7.0,72,0.00,,,0.00,0.000000,,2013-09-28 02:03:00,
2013-09-27 22:22:00,65.0,56.0,-100.00,NE,56,4.0,7.0,72,0.00,,,0.00,0.000000,,2013-09-28 02:22:00,
2013-09-27 22:32:00,65.0,56.0,-100.00,NE,56,4.0,7.0,72,0.00,,,0.00,0.000000,,2013-09-28 02:32:00,
2013-09-27 22:42:00,65.0,56.0,-100.00,NE,56,4.0,7.0,72,0.00,,,0.00,0.000000,,2013-09-28 02:42:00,
2013-09-27 22:53:00,65.0,56.0,-100.00,NE,56,4.0,7.0,72,0.00,,,0.00,0.000000,,2013-09-28 02:53:00,
2013-09-27 23:03:00,62.0,56.0,-100.00,NNE,29,5.0,6.0,82,0.00,,,0.00,0.000000,,2013-09-28 03:03:00,
2013-09-27 23:45:00,62.0,56.0,-100.00,NNE,29,5.0,6.0,82,0.00,,,0.00,0.000000,,2013-09-28 03:45:00,
2013-09-27 23:55:00,62.0,56.0,-100.00,NNE,29,5.0,6.0,82,0.00,,,0.00,0.000000,,2013-09-28 03:55:00,